| time (UTC) | temp F | wind direction | speed MPH | gust MPH | rain 1hr in | rain 24hr in | rain mn in | humidity % | barometer mb |
| 20260503002028 | 64 | 102 | 3.0 | 7.0 | 0.00 | 0.00 | 0.00 | 38 | 1014.1 |
| 20260503001540 | 64 | 108 | 3.0 | 8.0 | 0.00 | 0.00 | 0.00 | 37 | 1014.0 |
| 20260503001028 | 65 | 110 | 4.0 | 10.0 | 0.00 | 0.00 | 0.00 | 38 | 1014.2 |
| 20260503000528 | 65 | 98 | 6.0 | 10.0 | 0.00 | 0.00 | 0.00 | 37 | 1014.1 |
| 20260503000039 | 65 | 94 | 6.0 | 10.0 | 0.00 | 0.00 | 0.00 | 36 | 1014.1 |
| 20260502235527 | 65 | 94 | 4.0 | 9.0 | 0.00 | 0.00 | 0.00 | 39 | 1014.1 |
| 20260502235029 | 65 | 98 | 4.0 | 11.0 | 0.00 | 0.00 | 0.00 | 38 | 1014.1 |
| 20260502234540 | 65 | 109 | 4.0 | 11.0 | 0.00 | 0.00 | 0.00 | 36 | 1014.1 |
| 20260502234027 | 65 | 110 | 3.0 | 12.0 | 0.00 | 0.00 | 0.00 | 35 | 1014.1 |
| 20260502233528 | 65 | 360 | 5.0 | 13.0 | 0.00 | 0.00 | 0.00 | 37 | 1014.1 |
| 20260502233036 | 65 | 360 | 7.0 | 13.0 | 0.00 | 0.00 | 0.00 | 34 | 1014.1 |
| 20260502232529 | 66 | 129 | 8.0 | 12.0 | 0.00 | 0.00 | 0.00 | 34 | 1014.2 |
| 20260502232027 | 66 | 101 | 7.0 | 14.0 | 0.00 | 0.00 | 0.00 | 34 | 1014.2 |
| 20260502231544 | 67 | 123 | 8.0 | 14.0 | 0.00 | 0.00 | 0.00 | 33 | 1014.1 |
| 20260502231029 | 68 | 96 | 7.0 | 13.0 | 0.00 | 0.00 | 0.00 | 34 | 1014.1 |
| 20260502230529 | 69 | 103 | 8.0 | 13.0 | 0.00 | 0.00 | 0.00 | 30 | 1014.3 |
| 20260502230041 | 69 | 82 | 4.0 | 14.0 | 0.00 | 0.00 | 0.00 | 34 | 1014.2 |
| 20260502225530 | 69 | 360 | 7.0 | 14.0 | 0.00 | 0.00 | 0.00 | 35 | 1014.1 |
| 20260502225024 | 69 | 67 | 6.0 | 13.0 | 0.00 | 0.00 | 0.00 | 34 | 1014.2 |
| 20260502224540 | 69 | 95 | 7.0 | 16.0 | 0.00 | 0.00 | 0.00 | 32 | 1014.2 |
| 20260502224028 | 69 | 67 | 8.0 | 16.0 | 0.00 | 0.00 | 0.00 | 34 | 1014.1 |
| 20260502223529 | 69 | 134 | 10.0 | 16.0 | 0.00 | 0.00 | 0.00 | 30 | 1014.1 |
| 20260502223037 | 69 | 93 | 7.0 | 16.0 | 0.00 | 0.00 | 0.00 | 34 | 1014.1 |
| 20260502222529 | 69 | 121 | 8.0 | 16.0 | 0.00 | 0.00 | 0.00 | 34 | 1014.2 |
| 20260502222028 | 69 | 114 | 10.0 | 15.0 | 0.00 | 0.00 | 0.00 | 32 | 1014.3 |
| 20260502221547 | 69 | 103 | 7.0 | 15.0 | 0.00 | 0.00 | 0.00 | 35 | 1014.3 |
| 20260502221028 | 70 | 96 | 7.0 | 19.0 | 0.00 | 0.00 | 0.00 | 33 | 1014.4 |
| 20260502220529 | 70 | 108 | 7.0 | 19.0 | 0.00 | 0.00 | 0.00 | 36 | 1014.5 |
| 20260502220043 | 70 | 92 | 7.0 | 15.0 | 0.00 | 0.00 | 0.00 | 35 | 1014.3 |
| 20260502215529 | 70 | 109 | 10.0 | 14.0 | 0.00 | 0.00 | 0.00 | 33 | 1014.4 |
| 20260502215027 | 70 | 111 | 6.0 | 13.0 | 0.00 | 0.00 | 0.00 | 35 | 1014.6 |
| 20260502214547 | 69 | 92 | 7.0 | 15.0 | 0.00 | 0.00 | 0.00 | 39 | 1014.6 |
| 20260502214027 | 69 | 360 | 8.0 | 16.0 | 0.00 | 0.00 | 0.00 | 34 | 1014.7 |
| 20260502213528 | 70 | 360 | 8.0 | 16.0 | 0.00 | 0.00 | 0.00 | 34 | 1014.7 |
| 20260502213037 | 70 | 360 | 9.0 | 17.0 | 0.00 | 0.00 | 0.00 | 33 | 1014.7 |
| 20260502212527 | 70 | 360 | 9.0 | 17.0 | 0.00 | 0.00 | 0.00 | 34 | 1014.8 |
| 20260502212028 | 70 | 101 | 6.0 | 15.0 | 0.00 | 0.00 | 0.00 | 35 | 1014.9 |
| 20260502211542 | 70 | 74 | 8.0 | 18.0 | 0.00 | 0.00 | 0.00 | 34 | 1015.0 |
| 20260502211027 | 70 | 101 | 9.0 | 18.0 | 0.00 | 0.00 | 0.00 | 35 | 1015.1 |
| 20260502210527 | 70 | 99 | 8.0 | 17.0 | 0.00 | 0.00 | 0.00 | 32 | 1015.1 |
| 20260502210051 | 70 | 91 | 6.0 | 17.0 | 0.00 | 0.00 | 0.00 | 36 | 1015.1 |
| 20260502205527 | 69 | 360 | 9.0 | 20.0 | 0.00 | 0.00 | 0.00 | 34 | 1015.2 |
| 20260502205028 | 69 | 107 | 11.0 | 20.0 | 0.00 | 0.00 | 0.00 | 32 | 1015.2 |
| 20260502204539 | 70 | 95 | 8.0 | 16.0 | 0.00 | 0.00 | 0.00 | 33 | 1015.2 |
| 20260502204029 | 70 | 360 | 9.0 | 17.0 | 0.00 | 0.00 | 0.00 | 31 | 1015.2 |
| 20260502203528 | 69 | 82 | 10.0 | 19.0 | 0.00 | 0.00 | 0.00 | 35 | 1015.2 |
| 20260502203047 | 68 | 112 | 11.0 | 19.0 | 0.00 | 0.00 | 0.00 | 32 | 1015.2 |
| 20260502202530 | 69 | 109 | 9.0 | 18.0 | 0.00 | 0.00 | 0.00 | 32 | 1015.2 |
| 20260502202028 | 69 | 89 | 9.0 | 18.0 | 0.00 | 0.00 | 0.00 | 31 | 1015.1 |
| 20260502201543 | 69 | 86 | 8.0 | 18.0 | 0.00 | 0.00 | 0.00 | 33 | 1015.1 |
| 20260502201027 | 70 | 127 | 9.0 | 19.0 | 0.00 | 0.00 | 0.00 | 32 | 1015.1 |
| 20260502200527 | 69 | 360 | 8.0 | 19.0 | 0.00 | 0.00 | 0.00 | 34 | 1015.2 |
| 20260502200044 | 69 | 64 | 12.0 | 19.0 | 0.00 | 0.00 | 0.00 | 34 | 1015.2 |
| 20260502195528 | 70 | 73 | 8.0 | 16.0 | 0.00 | 0.00 | 0.00 | 33 | 1015.2 |
| 20260502195026 | 70 | 69 | 9.0 | 18.0 | 0.00 | 0.00 | 0.00 | 34 | 1015.2 |
| 20260502194540 | 70 | 57 | 9.0 | 18.0 | 0.00 | 0.00 | 0.00 | 31 | 1015.3 |
| 20260502194027 | 70 | 103 | 6.0 | 17.0 | 0.00 | 0.00 | 0.00 | 32 | 1015.2 |
| 20260502193527 | 70 | 86 | 9.0 | 20.0 | 0.00 | 0.00 | 0.00 | 34 | 1015.2 |
| 20260502193040 | 69 | 103 | 13.0 | 20.0 | 0.00 | 0.00 | 0.00 | 30 | 1015.3 |
| 20260502192528 | 69 | 360 | 10.0 | 20.0 | 0.00 | 0.00 | 0.00 | 32 | 1015.3 |
| 20260502192027 | 69 | 360 | 10.0 | 18.0 | 0.00 | 0.00 | 0.00 | 35 | 1015.4 |
| 20260502191537 | 69 | 50 | 9.0 | 18.0 | 0.00 | 0.00 | 0.00 | 33 | 1015.4 |
| 20260502191028 | 69 | 66 | 8.0 | 19.0 | 0.00 | 0.00 | 0.00 | 33 | 1015.4 |
| 20260502190527 | 69 | 67 | 8.0 | 19.0 | 0.00 | 0.00 | 0.00 | 35 | 1015.5 |
| 20260502190037 | 69 | 360 | 9.0 | 18.0 | 0.00 | 0.00 | 0.00 | 30 | 1015.5 |
| 20260502185526 | 69 | 360 | 9.0 | 17.0 | 0.00 | 0.00 | 0.00 | 34 | 1015.6 |
| 20260502185029 | 69 | 360 | 9.0 | 17.0 | 0.00 | 0.00 | 0.00 | 30 | 1015.6 |
| 20260502184540 | 70 | 87 | 10.0 | 17.0 | 0.00 | 0.00 | 0.00 | 29 | 1015.6 |
| 20260502184028 | 70 | 86 | 7.0 | 17.0 | 0.00 | 0.00 | 0.00 | 27 | 1015.5 |
| 20260502183527 | 70 | 104 | 8.0 | 17.0 | 0.00 | 0.00 | 0.00 | 29 | 1015.5 |
| 20260502183040 | 70 | 72 | 7.0 | 17.0 | 0.00 | 0.00 | 0.00 | 30 | 1015.6 |
| 20260502182531 | 69 | 360 | 8.0 | 17.0 | 0.00 | 0.00 | 0.00 | 30 | 1015.7 |
| 20260502182027 | 69 | 113 | 11.0 | 15.0 | 0.00 | 0.00 | 0.00 | 28 | 1015.7 |
| 20260502181538 | 70 | 67 | 7.0 | 18.0 | 0.00 | 0.00 | 0.00 | 31 | 1015.6 |
| 20260502181024 | 69 | 360 | 9.0 | 18.0 | 0.00 | 0.00 | 0.00 | 30 | 1015.7 |
| 20260502180524 | 69 | 94 | 11.0 | 18.0 | 0.00 | 0.00 | 0.00 | 28 | 1015.7 |
| 20260502164027 | 68 | 360 | 8.0 | 17.0 | 0.00 | 0.00 | 0.00 | 29 | 1015.8 |
| 20260502163527 | 69 | 360 | 9.0 | 17.0 | 0.00 | 0.00 | 0.00 | 28 | 1015.8 |
| 20260502163042 | 69 | 360 | 9.0 | 16.0 | 0.00 | 0.00 | 0.00 | 27 | 1015.8 |
| 20260502162532 | 69 | 360 | 6.0 | 13.0 | 0.00 | 0.00 | 0.00 | 28 | 1015.8 |
| 20260502162029 | 69 | 360 | 7.0 | 15.0 | 0.00 | 0.00 | 0.00 | 28 | 1015.9 |
| 20260502161544 | 68 | 360 | 8.0 | 16.0 | 0.00 | 0.00 | 0.00 | 28 | 1015.7 |
| 20260502161029 | 68 | 360 | 9.0 | 16.0 | 0.00 | 0.00 | 0.00 | 28 | 1015.8 |
| 20260502160530 | 68 | 360 | 5.0 | 13.0 | 0.00 | 0.00 | 0.00 | 28 | 1015.7 |
| 20260502152028 | 66 | 360 | 4.0 | 8.0 | 0.00 | 0.00 | 0.00 | 35 | 1015.9 |
| 20260502151544 | 65 | 360 | 3.0 | 8.0 | 0.00 | 0.00 | 0.00 | 36 | 1016.0 |
| 20260502151027 | 64 | 360 | 2.0 | 5.0 | 0.00 | 0.00 | 0.00 | 37 | 1016.0 |
| 20260502150527 | 64 | 360 | 2.0 | 4.0 | 0.00 | 0.00 | 0.00 | 35 | 1016.0 |
| 20260502130532 | 39 | 360 | 3.0 | 5.0 | 0.00 | 0.00 | 0.00 | 61 | 1016.3 |
| 20260502123527 | 35 | 360 | 1.0 | 4.0 | 0.00 | 0.00 | 0.00 | 66 | 1016.1 |
| 20260502123043 | 36 | 360 | 2.0 | 4.0 | 0.00 | 0.00 | 0.00 | 65 | 1016.2 |
| 20260502122527 | 36 | 360 | 1.0 | 4.0 | 0.00 | 0.00 | 0.00 | 63 | 1016.2 |
| 20260502122028 | 37 | 360 | 2.0 | 4.0 | 0.00 | 0.00 | 0.00 | 61 | 1016.2 |
| 20260502121538 | 37 | 360 | 2.0 | 4.0 | 0.00 | 0.00 | 0.00 | 60 | 1016.0 |
| 20260502121028 | 37 | 360 | 2.0 | 4.0 | 0.00 | 0.00 | 0.00 | 61 | 1016.2 |
| 20260502120529 | 36 | 360 | 2.0 | 4.0 | 0.00 | 0.00 | 0.00 | 62 | 1016.3 |
| 20260502115527 | 35 | 360 | 1.0 | 4.0 | 0.00 | 0.00 | 0.00 | 63 | 1016.1 |
| 20260502115027 | 35 | 360 | 2.0 | 4.0 | 0.00 | 0.00 | 0.00 | 64 | 1016.2 |
| 20260502114629 | 36 | 360 | 1.0 | 3.0 | 0.00 | 0.00 | 0.00 | 63 | 1016.1 |
| 20260502114024 | 36 | 0 | 0.0 | 5.0 | 0.00 | 0.00 | 0.00 | 63 | 1016.1 |
| 20260502113529 | 36 | 360 | 1.0 | 5.0 | 0.00 | 0.00 | 0.00 | 63 | 1016.1 |
| 20260502113044 | 37 | 360 | 2.0 | 5.0 | 0.00 | 0.00 | 0.00 | 62 | 1016.0 |
| 20260502112527 | 38 | 360 | 1.0 | 5.0 | 0.00 | 0.00 | 0.00 | 59 | 1016.1 |
| 20260502112030 | 39 | 360 | 2.0 | 5.0 | 0.00 | 0.00 | 0.00 | 58 | 1016.1 |
| 20260502111539 | 39 | 360 | 3.0 | 4.0 | 0.00 | 0.00 | 0.00 | 56 | 1016.1 |
| 20260502111028 | 39 | 360 | 1.0 | 4.0 | 0.00 | 0.00 | 0.00 | 56 | 1016.1 |
| 20260502110528 | 40 | 360 | 1.0 | 4.0 | 0.00 | 0.00 | 0.00 | 56 | 1016.3 |
| 20260502110041 | 41 | 360 | 2.0 | 4.0 | 0.00 | 0.00 | 0.00 | 54 | 1016.3 |
| 20260502105527 | 41 | 360 | 1.0 | 4.0 | 0.00 | 0.00 | 0.00 | 54 | 1016.3 |
| 20260502105027 | 42 | 0 | 0.0 | 6.0 | 0.00 | 0.00 | 0.00 | 55 | 1016.3 |
| 20260502104539 | 43 | 360 | 3.0 | 6.0 | 0.00 | 0.00 | 0.00 | 51 | 1016.3 |
| 20260502104024 | 43 | 360 | 0.0 | 5.0 | 0.00 | 0.00 | 0.00 | 51 | 1016.3 |
| 20260502103524 | 42 | 360 | 2.0 | 4.0 | 0.00 | 0.00 | 0.00 | 51 | 1016.3 |
| 20260502103037 | 42 | 360 | 1.0 | 3.0 | 0.00 | 0.00 | 0.00 | 53 | 1016.4 |
| 20260502102527 | 42 | 0 | 1.0 | 9.0 | 0.00 | 0.00 | 0.00 | 51 | 1016.4 |
| 20260502102027 | 43 | 360 | 1.0 | 9.0 | 0.00 | 0.00 | 0.00 | 52 | 1016.4 |
| 20260502101600 | 43 | 360 | 4.0 | 9.0 | 0.00 | 0.00 | 0.00 | 51 | 1016.4 |
| 20260502101028 | 43 | 360 | 2.0 | 5.0 | 0.00 | 0.00 | 0.00 | 53 | 1016.4 |
| 20260502100528 | 43 | 360 | 2.0 | 8.0 | 0.00 | 0.00 | 0.00 | 51 | 1016.5 |
| 20260502091029 | 38 | 0 | 1.0 | 2.0 | 0.00 | 0.00 | 0.00 | 66 | 1016.7 |
| 20260502090528 | 38 | 0 | 0.0 | 2.0 | 0.00 | 0.00 | 0.00 | 64 | 1016.7 |
| 20260502071028 | 38 | 360 | 2.0 | 4.0 | 0.00 | 0.00 | 0.00 | 67 | 1018.0 |
| 20260502070528 | 38 | 360 | 1.0 | 3.0 | 0.00 | 0.00 | 0.00 | 67 | 1018.0 |
| 20260502070046 | 38 | 0 | 1.0 | 3.0 | 0.00 | 0.00 | 0.00 | 67 | 1018.1 |
| 20260502065525 | 38 | 360 | 1.0 | 3.0 | 0.00 | 0.00 | 0.00 | 67 | 1018.0 |
| 20260502065027 | 38 | 0 | 0.0 | 4.0 | 0.00 | 0.00 | 0.00 | 67 | 1018.1 |
| 20260502064605 | 38 | 360 | 2.0 | 5.0 | 0.00 | 0.00 | 0.00 | 67 | 1018.1 |
| 20260502064028 | 39 | 360 | 2.0 | 5.0 | 0.00 | 0.00 | 0.00 | 66 | 1018.1 |
| 20260502063527 | 39 | 360 | 3.0 | 5.0 | 0.00 | 0.00 | 0.00 | 67 | 1018.1 |
| 20260502063040 | 39 | 360 | 2.0 | 3.0 | 0.00 | 0.00 | 0.00 | 67 | 1018.2 |
| 20260502062525 | 38 | 360 | 2.0 | 4.0 | 0.00 | 0.00 | 0.00 | 67 | 1018.3 |
| 20260502062027 | 38 | 360 | 1.0 | 5.0 | 0.00 | 0.00 | 0.00 | 67 | 1018.1 |
| 20260502061536 | 38 | 360 | 3.0 | 5.0 | 0.00 | 0.00 | 0.00 | 66 | 1018.2 |
| 20260502061028 | 39 | 360 | 3.0 | 5.0 | 0.00 | 0.00 | 0.00 | 67 | 1018.1 |
| 20260502060527 | 38 | 360 | 3.0 | 5.0 | 0.00 | 0.00 | 0.00 | 67 | 1018.0 |
| 20260502060047 | 38 | 360 | 3.0 | 5.0 | 0.00 | 0.00 | 0.00 | 67 | 1018.1 |
| 20260502055528 | 38 | 360 | 2.0 | 4.0 | 0.00 | 0.00 | 0.00 | 67 | 1018.1 |
| 20260502055028 | 39 | 360 | 2.0 | 5.0 | 0.00 | 0.00 | 0.00 | 66 | 1018.2 |
| 20260502054539 | 39 | 360 | 2.0 | 5.0 | 0.00 | 0.00 | 0.00 | 67 | 1018.2 |
| 20260502054027 | 39 | 360 | 2.0 | 4.0 | 0.00 | 0.00 | 0.00 | 66 | 1018.3 |
| 20260502053531 | 39 | 360 | 2.0 | 4.0 | 0.00 | 0.00 | 0.00 | 65 | 1018.3 |
| 20260502053040 | 40 | 360 | 2.0 | 5.0 | 0.00 | 0.00 | 0.00 | 65 | 1018.1 |
| 20260502052527 | 39 | 360 | 2.0 | 5.0 | 0.00 | 0.00 | 0.00 | 66 | 1018.3 |
| 20260502052028 | 38 | 360 | 3.0 | 6.0 | 0.00 | 0.00 | 0.00 | 67 | 1018.4 |
| 20260502051539 | 38 | 360 | 2.0 | 6.0 | 0.00 | 0.00 | 0.00 | 68 | 1018.3 |
| 20260502051028 | 37 | 360 | 2.0 | 6.0 | 0.00 | 0.00 | 0.00 | 69 | 1018.4 |
| 20260502050527 | 37 | 360 | 2.0 | 3.0 | 0.00 | 0.00 | 0.00 | 68 | 1018.3 |
| 20260502050039 | 37 | 360 | 1.0 | 3.0 | 0.00 | 0.00 | 0.00 | 68 | 1018.4 |
| 20260502045527 | 37 | 360 | 2.0 | 4.0 | 0.00 | 0.00 | 0.00 | 69 | 1018.4 |
| 20260502045027 | 37 | 360 | 2.0 | 4.0 | 0.00 | 0.00 | 0.00 | 69 | 1018.4 |
| 20260502044542 | 37 | 360 | 2.0 | 4.0 | 0.00 | 0.00 | 0.00 | 68 | 1018.4 |
| 20260502044027 | 37 | 360 | 1.0 | 3.0 | 0.00 | 0.00 | 0.00 | 69 | 1018.4 |
| 20260502043529 | 37 | 360 | 1.0 | 3.0 | 0.00 | 0.00 | 0.00 | 69 | 1018.4 |
| 20260502043107 | 37 | 360 | 2.0 | 3.0 | 0.00 | 0.00 | 0.00 | 70 | 1018.5 |
| 20260502042528 | 37 | 360 | 1.0 | 3.0 | 0.00 | 0.00 | 0.00 | 71 | 1018.5 |
| 20260502042028 | 37 | 360 | 2.0 | 4.0 | 0.00 | 0.00 | 0.00 | 71 | 1018.6 |
| 20260502041545 | 37 | 360 | 2.0 | 4.0 | 0.00 | 0.00 | 0.00 | 69 | 1018.6 |
| 20260502041027 | 37 | 360 | 3.0 | 5.0 | 0.00 | 0.00 | 0.00 | 70 | 1018.6 |
| 20260502040531 | 37 | 0 | 2.0 | 5.0 | 0.00 | 0.00 | 0.00 | 68 | 1018.6 |
| 20260502040039 | 38 | 360 | 2.0 | 4.0 | 0.00 | 0.00 | 0.00 | 66 | 1018.4 |
| 20260502035527 | 39 | 360 | 2.0 | 4.0 | 0.00 | 0.00 | 0.00 | 66 | 1018.5 |
| 20260502035028 | 39 | 360 | 2.0 | 4.0 | 0.00 | 0.00 | 0.00 | 66 | 1018.5 |
| 20260502034538 | 39 | 360 | 2.0 | 4.0 | 0.00 | 0.00 | 0.00 | 67 | 1018.5 |
| 20260502034024 | 38 | 360 | 2.0 | 4.0 | 0.00 | 0.00 | 0.00 | 67 | 1018.6 |
| 20260502033527 | 39 | 360 | 1.0 | 3.0 | 0.00 | 0.00 | 0.00 | 67 | 1018.5 |
| 20260502033043 | 39 | 360 | 2.0 | 3.0 | 0.00 | 0.00 | 0.00 | 66 | 1018.4 |
| 20260502032528 | 38 | 360 | 1.0 | 3.0 | 0.00 | 0.00 | 0.00 | 68 | 1018.4 |
| 20260502032027 | 39 | 360 | 0.0 | 3.0 | 0.00 | 0.00 | 0.00 | 67 | 1018.5 |
| 20260502031540 | 39 | 360 | 2.0 | 3.0 | 0.00 | 0.00 | 0.00 | 65 | 1018.4 |
| 20260502031028 | 40 | 0 | 0.0 | 2.0 | 0.00 | 0.00 | 0.00 | 65 | 1018.4 |
| 20260502030528 | 41 | 360 | 0.0 | 4.0 | 0.00 | 0.00 | 0.00 | 62 | 1018.3 |
| 20260502030046 | 43 | 360 | 1.0 | 4.0 | 0.00 | 0.00 | 0.00 | 59 | 1018.1 |
| 20260502025527 | 44 | 360 | 2.0 | 4.0 | 0.00 | 0.00 | 0.00 | 58 | 1018.2 |
| 20260502025029 | 44 | 360 | 2.0 | 4.0 | 0.00 | 0.00 | 0.00 | 58 | 1018.1 |
| 20260502024537 | 44 | 360 | 3.0 | 4.0 | 0.00 | 0.00 | 0.00 | 59 | 1017.9 |
| 20260502024027 | 44 | 360 | 2.0 | 4.0 | 0.00 | 0.00 | 0.00 | 60 | 1018.0 |
| 20260502023527 | 44 | 360 | 3.0 | 4.0 | 0.00 | 0.00 | 0.00 | 60 | 1017.9 |
| 20260502023104 | 44 | 360 | 2.0 | 3.0 | 0.00 | 0.00 | 0.00 | 61 | 1017.9 |
| 20260502022528 | 45 | 360 | 1.0 | 3.0 | 0.00 | 0.00 | 0.00 | 60 | 1017.9 |
| 20260502022030 | 46 | 360 | 1.0 | 3.0 | 0.00 | 0.00 | 0.00 | 60 | 1017.8 |
| 20260502021543 | 48 | 360 | 1.0 | 4.0 | 0.00 | 0.00 | 0.00 | 58 | 1017.8 |
| 20260502021027 | 50 | 360 | 2.0 | 4.0 | 0.00 | 0.00 | 0.00 | 52 | 1017.8 |
| 20260502020530 | 52 | 360 | 2.0 | 4.0 | 0.00 | 0.00 | 0.00 | 48 | 1017.8 |
| 20260502020041 | 54 | 360 | 0.0 | 2.0 | 0.00 | 0.00 | 0.00 | 44 | 1017.7 |
| 20260502015527 | 56 | 0 | 0.0 | 0.0 | 0.00 | 0.00 | 0.00 | 42 | 1017.5 |
| 20260502015028 | 57 | 0 | 0.0 | 0.0 | 0.00 | 0.00 | 0.00 | 43 | 1017.6 |
| 20260502014541 | 58 | 0 | 0.0 | 2.0 | 0.00 | 0.00 | 0.00 | 41 | 1017.6 |
| 20260502014028 | 59 | 0 | 0.0 | 2.0 | 0.00 | 0.00 | 0.00 | 39 | 1017.5 |
| 20260502013527 | 59 | 0 | 1.0 | 2.0 | 0.00 | 0.00 | 0.00 | 38 | 1017.5 |
| 20260502013042 | 59 | 0 | 0.0 | 3.0 | 0.00 | 0.00 | 0.00 | 37 | 1017.6 |
| 20260502012527 | 59 | 360 | 0.0 | 3.0 | 0.00 | 0.00 | 0.00 | 40 | 1017.6 |
| 20260502012030 | 59 | 360 | 1.0 | 4.0 | 0.00 | 0.00 | 0.00 | 39 | 1017.5 |
| 20260502011537 | 60 | 360 | 1.0 | 4.0 | 0.00 | 0.00 | 0.00 | 40 | 1017.4 |
| 20260502011028 | 61 | 360 | 2.0 | 4.0 | 0.00 | 0.00 | 0.00 | 37 | 1017.5 |
| 20260502010527 | 61 | 360 | 2.0 | 9.0 | 0.00 | 0.00 | 0.00 | 38 | 1017.5 |
| 20260502010036 | 62 | 360 | 2.0 | 9.0 | 0.00 | 0.00 | 0.00 | 36 | 1017.5 |
| 20260502005527 | 63 | 360 | 2.0 | 8.0 | 0.00 | 0.00 | 0.00 | 33 | 1017.4 |
| 20260502005024 | 63 | 360 | 4.0 | 11.0 | 0.00 | 0.00 | 0.00 | 31 | 1017.3 |
| 20260502004544 | 63 | 360 | 3.0 | 11.0 | 0.00 | 0.00 | 0.00 | 35 | 1017.4 |
| 20260502004026 | 63 | 360 | 7.0 | 11.0 | 0.00 | 0.00 | 0.00 | 29 | 1017.3 |
| 20260502003523 | 63 | 360 | 5.0 | 11.0 | 0.00 | 0.00 | 0.00 | 29 | 1017.3 |
| 20260502003039 | 63 | 360 | 5.0 | 11.0 | 0.00 | 0.00 | 0.00 | 28 | 1017.3 |
| 20260502002527 | 63 | 360 | 7.0 | 11.0 | 0.00 | 0.00 | 0.00 | 29 | 1017.4 |